Weather History for Kansas City International, MO

Change the Weather History Date:

Sunday, January 6, 2013

  Actual Average Record
Temperature  
Mean Temperature 30 °F 29 °F  
Max Temperature 38 °F 38 °F 64 °F (1939)
Min Temperature 21 °F 20 °F -13 °F (1912)
Degree Days  
Heating Degree Days 35 36  
Month to date heating degree days 232 216  
Since 1 July heating degree days 2070 2258  
Cooling Degree Days 0 0  
Month to date cooling degree days 0 0  
Year to date cooling degree days 0 0  
Moisture  
Dew Point 18 °F    
Average Humidity 61    
Maximum Humidity 77    
Minimum Humidity 44    
Precipitation  
Precipitation 0.00 in 0.03 in 0.45 in (1916)
Month to date precipitation T 0.20  
Year to date precipitation T 0.20  
Snow  
Snow 0.00 in 0.10 in 5.00 in (1916)
Month to date snowfall T 0.8  
Since 1 July snowfall 3.7 7.0  
Snow Depth T in    
Sea Level Pressure  
Sea Level Pressure 30.32 in    
Wind  
Wind Speed 8 mph (West)    
Max Wind Speed 17 mph    
Max Gust Speed 23 mph    
Visibility 10 miles    
Events      
T = Trace of Precipitation, MM = Missing Value Source: NWS Daily Summary

Daily Weather History Graph

Daily Weather History Graph

Search for Another Location

Airport:

Trip Planner

Search our weather history database for the weather conditions in past years. The results will help you decide how hot, cold, wet, or windy it might be!

Date:

Astronomy

Jan. 06, 2013 Rise Set
Actual Time 7:38 AM CST 5:11 PM CST
Civil Twilight 7:09 AM CST 5:41 PM CST
Nautical Twilight 6:35 AM CST 6:14 PM CST
Astronomical Twilight 6:03 AM CST 6:46 PM CST
Moon 1:55 AM CST (1/6) 12:38 PM CST (1/6)
Length of Visible Light 10h 31m
Length of Day
9h 32m
Waning Crescent, 33% of the Moon is Illuminated
Jan 6
Waning Crescent
Jan 11
New
Jan 18
First Quarter
Jan 26
Full
Feb 3
Last Quarter

Hourly Weather History & Observations

Time (CST) Temp. Windchill Dew Point Humidity Pressure Visibility Wind Dir Wind Speed Gust Speed Precip Events Conditions
12:53 AM 28.9 °F 19.2 °F 21.0 °F 72% 30.19 in 10.0 mi NW 11.5 mph - N/A   Clear
1:53 AM 27.0 °F 18.7 °F 19.0 °F 72% 30.21 in 10.0 mi NW 8.1 mph - N/A   Partly Cloudy
2:53 AM 25.0 °F 16.3 °F 18.0 °F 75% 30.24 in 10.0 mi NW 8.1 mph - N/A   Scattered Clouds
3:53 AM 24.1 °F 15.2 °F 17.1 °F 75% 30.26 in 10.0 mi NW 8.1 mph - N/A   Mostly Cloudy
4:53 AM 21.9 °F 9.2 °F 15.1 °F 75% 30.28 in 10.0 mi NW 13.8 mph - N/A   Overcast
5:53 AM 21.9 °F 10.4 °F 16.0 °F 78% 30.31 in 9.0 mi NW 11.5 mph - N/A   Overcast
6:53 AM 21.9 °F 13.4 °F 16.0 °F 78% 30.33 in 9.0 mi NNW 6.9 mph - N/A   Overcast
7:53 AM 21.0 °F 13.4 °F 16.0 °F 81% 30.35 in 9.0 mi NW 5.8 mph - N/A   Scattered Clouds
8:53 AM 24.1 °F 17.0 °F 17.1 °F 75% 30.37 in 9.0 mi West 5.8 mph - N/A   Partly Cloudy
9:53 AM 26.1 °F 16.8 °F 18.0 °F 71% 30.39 in 10.0 mi West 9.2 mph - N/A   Clear
10:53 AM 28.9 °F 21.1 °F 18.0 °F 64% 30.40 in 10.0 mi WNW 8.1 mph - N/A   Clear
11:53 AM 32.0 °F 25.6 °F 18.0 °F 56% 30.39 in 10.0 mi WNW 6.9 mph - N/A   Clear
12:53 PM 34.0 °F 28.0 °F 18.0 °F 52% 30.36 in 10.0 mi WSW 6.9 mph - N/A   Clear
1:53 PM 35.1 °F 32.2 °F 18.0 °F 50% 30.34 in 10.0 mi WNW 3.5 mph - N/A   Clear
2:53 PM 37.0 °F 32.4 °F 18.0 °F 46% 30.34 in 10.0 mi SW 5.8 mph - N/A   Clear
3:53 PM 37.9 °F 33.5 °F 18.0 °F 45% 30.33 in 10.0 mi SW 5.8 mph - N/A   Clear
4:53 PM 36.0 °F 32.1 °F 17.1 °F 46% 30.33 in 10.0 mi SSW 4.6 mph - N/A   Clear
5:53 PM 32.0 °F 25.6 °F 17.1 °F 54% 30.34 in 10.0 mi South 6.9 mph - N/A   Clear
6:53 PM 28.0 °F 20.8 °F 17.1 °F 63% 30.35 in 10.0 mi South 6.9 mph - N/A   Clear
7:53 PM 25.0 °F 16.3 °F 17.1 °F 72% 30.34 in 10.0 mi South 8.1 mph - N/A   Clear
8:53 PM 26.6 °F 17.5 °F 17.6 °F 69% 30.28 in 10.0 mi SSE 9.2 mph - N/A   Clear
9:53 PM 27.0 °F 17.3 °F 18.0 °F 69% 30.31 in 10.0 mi SSE 10.4 mph - N/A   Clear
10:53 PM 28.0 °F 18.1 °F 19.0 °F 69% 30.29 in 10.0 mi South 11.5 mph - N/A   Clear
11:53 PM 28.0 °F 18.1 °F 19.0 °F 69% 30.29 in 10.0 mi South 11.5 mph - N/A   Clear